EN

Hourly Weather Acamixtla

Today, 24 November, Tuesday

Time Temperature Precipitation Wind Pressure Humidity
00:00 +15°C° 0 mm 1 mps 629 mmHg 58%
01:00 +15°C° 0 mm 1 mps 629 mmHg 60%
02:00 +15°C° 0 mm 1 mps 629 mmHg 61%
03:00 +14°C° 0 mm 1 mps 628 mmHg 62%
04:00 +14°C° 0 mm 1 mps 628 mmHg 64%
05:00 +14°C° 0 mm 1 mps 628 mmHg 65%
06:00 +16°C° 0 mm 1 mps 629 mmHg 61%
07:00 +19°C° 0 mm 1 mps 631 mmHg 56%
08:00 +19°C° 0 mm 0 mps 632 mmHg 51%
09:00 +23°C° 0 mm 1 mps 632 mmHg 46%
10:00 +25°C° 0 mm 1 mps 632 mmHg 41%
11:00 +27°C° 0 mm 1 mps 632 mmHg 37%
12:00 +27°C° 0 mm 1 mps 632 mmHg 36%
13:00 +28°C° 0 mm 1 mps 631 mmHg 35%
14:00 +28°C° 0 mm 1 mps 631 mmHg 34%
15:00 +25°C° 0 mm 1 mps 630 mmHg 41%
16:00 +23°C° 0 mm 1 mps 629 mmHg 48%
17:00 +19°C° 0 mm 0 mps 628 mmHg 55%
18:00 +20°C° 0 mm 1 mps 629 mmHg 58%
19:00 +19°C° 0 mm 1 mps 629 mmHg 60%
20:00 +19°C° 0 mm 1 mps 630 mmHg 62%
21:00 +18°C° 0 mm 1 mps 630 mmHg 63%
22:00 +18°C° 0 mm 1 mps 630 mmHg 63%
23:00 +18°C° 0 mm 1 mps 630 mmHg 63%

Tomorrow, 25 November, Wednesday

Time Temperature Precipitation Wind Pressure Humidity
00:00 +18°C° 0 mm 1 mps 630 mmHg 64%
01:00 +16°C° 0 mm 1 mps 629 mmHg 64%
02:00 +16°C° 0 mm 1 mps 629 mmHg 64%
03:00 +16°C° 0 mm 1 mps 629 mmHg 65%
04:00 +15°C° 0 mm 1 mps 629 mmHg 65%
05:00 +15°C° 0 mm 1 mps 629 mmHg 66%
06:00 +18°C° 0 mm 1 mps 630 mmHg 61%
07:00 +18°C° 0 mm 0 mps 631 mmHg 55%
08:00 +20°C° 0 mm 0 mps 632 mmHg 49%
09:00 +24°C° 0 mm 1 mps 632 mmHg 44%
10:00 +27°C° 0 mm 1 mps 632 mmHg 39%
11:00 +29°C° 0 mm 1 mps 633 mmHg 34%
12:00 +29°C° 0 mm 1 mps 632 mmHg 33%
13:00 +29°C° 0 mm 1 mps 632 mmHg 32%
14:00 +29°C° 0 mm 1 mps 631 mmHg 30%
15:00 +27°C° 0 mm 1 mps 630 mmHg 38%
16:00 +24°C° 0 mm 1 mps 629 mmHg 46%
17:00 +22°C° 0 mm 1 mps 629 mmHg 54%
18:00 +21°C° 0 mm 1 mps 629 mmHg 58%
19:00 +20°C° 0 mm 1 mps 630 mmHg 62%
20:00 +20°C° 0 mm 1 mps 630 mmHg 66%
21:00 +19°C° 0 mm 1 mps 630 mmHg 65%
22:00 +19°C° 0 mm 1 mps 630 mmHg 65%
23:00 +19°C° 0 mm 1 mps 630 mmHg 65%

Day after tomorrow, 26 November, Thursday

Time Temperature Precipitation Wind Pressure Humidity
00:00 +18°C° 0 mm 1 mps 630 mmHg 65%
01:00 +18°C° 0 mm 1 mps 629 mmHg 65%
02:00 +18°C° 0 mm 1 mps 629 mmHg 65%
03:00 +16°C° 0 mm 1 mps 629 mmHg 64%
04:00 +16°C° 0 mm 1 mps 629 mmHg 63%
05:00 +16°C° 0 mm 1 mps 629 mmHg 62%
06:00 +19°C° 0 mm 1 mps 630 mmHg 57%
07:00 +21°C° 0 mm 1 mps 631 mmHg 51%
08:00 +21°C° 0 mm 0 mps 632 mmHg 46%
09:00 +25°C° 0 mm 1 mps 632 mmHg 41%
10:00 +27°C° 0 mm 1 mps 632 mmHg 36%
11:00 +29°C° 0 mm 1 mps 632 mmHg 31%
12:00 +29°C° 0 mm 1 mps 632 mmHg 30%
13:00 +29°C° 0 mm 1 mps 631 mmHg 30%
14:00 +29°C° 0 mm 1 mps 630 mmHg 29%
15:00 +27°C° 0 mm 1 mps 630 mmHg 36%
16:00 +24°C° 0 mm 1 mps 629 mmHg 43%
17:00 +20°C° 0 mm 0 mps 628 mmHg 50%
18:00 +21°C° 0 mm 1 mps 628 mmHg 54%
19:00 +20°C° 0 mm 1 mps 629 mmHg 58%
20:00 +20°C° 0 mm 1 mps 629 mmHg 62%
21:00 +19°C° 0 mm 1 mps 629 mmHg 63%
22:00 +19°C° 0 mm 1 mps 629 mmHg 64%
23:00 +19°C° 0 mm 1 mps 629 mmHg 65%

27 November, Friday

Time Temperature Precipitation Wind Pressure Humidity
00:00 +18°C° 0 mm 1 mps 629 mmHg 65%
01:00 +18°C° 0 mm 1 mps 629 mmHg 66%
02:00 +16°C° 0 mm 1 mps 628 mmHg 66%
03:00 +16°C° 0 mm 1 mps 628 mmHg 67%
04:00 +16°C° 0 mm 1 mps 628 mmHg 68%
05:00 +14°C° 0 mm 0 mps 628 mmHg 68%
06:00 +17°C° 0 mm 0 mps 629 mmHg 62%
07:00 +19°C° 0 mm 0 mps 630 mmHg 56%
08:00 +21°C° 0 mm 0 mps 631 mmHg 50%
09:00 +23°C° 0 mm 0 mps 631 mmHg 46%
10:00 +27°C° 0 mm 1 mps 631 mmHg 41%
11:00 +28°C° 0 mm 1 mps 631 mmHg 36%
12:00 +29°C° 0 mm 1 mps 631 mmHg 36%
13:00 +29°C° 0 mm 1 mps 630 mmHg 35%
14:00 +29°C° 0 mm 1 mps 629 mmHg 34%
15:00 +27°C° 0 mm 1 mps 629 mmHg 42%
16:00 +24°C° 0 mm 1 mps 628 mmHg 50%
17:00 +20°C° 0 mm 0 mps 628 mmHg 57%
18:00 +21°C° 0 mm 1 mps 628 mmHg 62%
19:00 +20°C° 0 mm 1 mps 628 mmHg 66%
20:00 +20°C° 0 mm 1 mps 629 mmHg 70%
21:00 +19°C° 0 mm 1 mps 629 mmHg 71%
22:00 +19°C° 0 mm 1 mps 629 mmHg 71%
23:00 +19°C° 0 mm 1 mps 629 mmHg 72%

28 November, Saturday

Time Temperature Precipitation Wind Pressure Humidity
00:00 +18°C° 0 mm 1 mps 628 mmHg 73%
01:00 +18°C° 0 mm 1 mps 628 mmHg 73%
02:00 +16°C° 0 mm 1 mps 627 mmHg 74%
03:00 +16°C° 0 mm 1 mps 627 mmHg 74%
04:00 +16°C° 0 mm 1 mps 627 mmHg 75%
05:00 +15°C° 0 mm 1 mps 627 mmHg 75%
06:00 +16°C° 0 mm 0 mps 628 mmHg 69%
07:00 +18°C° 0 mm 0 mps 629 mmHg 62%
08:00 +20°C° 0 mm 0 mps 630 mmHg 55%
09:00 +24°C° 0 mm 1 mps 630 mmHg 51%
10:00 +26°C° 0 mm 1 mps 631 mmHg 46%
11:00 +28°C° 0 mm 1 mps 631 mmHg 41%
12:00 +28°C° 0 mm 1 mps 630 mmHg 40%
13:00 +28°C° 0 mm 1 mps 629 mmHg 38%
14:00 +29°C° 0 mm 1 mps 629 mmHg 36%
15:00 +26°C° 0 mm 1 mps 628 mmHg 43%
16:00 +24°C° 0 mm 1 mps 628 mmHg 50%
17:00 +20°C° 0 mm 0 mps 627 mmHg 56%
18:00 +19°C° 0 mm 0 mps 628 mmHg 59%
19:00 +20°C° 0 mm 1 mps 628 mmHg 63%
20:00 +20°C° 0 mm 1 mps 629 mmHg 66%
21:00 +19°C° 0 mm 1 mps 628 mmHg 67%
22:00 +19°C° 0 mm 1 mps 628 mmHg 68%
23:00 +16°C° 0 mm 0 mps 628 mmHg 69%

29 November, Sunday

Time Temperature Precipitation Wind Pressure Humidity
00:00 +16°C° 0 mm 0 mps 628 mmHg 69%
01:00 +16°C° 0 mm 1 mps 627 mmHg 69%
02:00 +16°C° 0 mm 1 mps 627 mmHg 68%
03:00 +15°C° 0 mm 1 mps 627 mmHg 68%
04:00 +15°C° 0 mm 1 mps 627 mmHg 67%
05:00 +14°C° 0 mm 1 mps 627 mmHg 66%
06:00 +16°C° 0 mm 1 mps 628 mmHg 61%
07:00 +19°C° 0 mm 1 mps 629 mmHg 55%
08:00 +21°C° 0 mm 1 mps 630 mmHg 50%
09:00 +23°C° 0 mm 1 mps 630 mmHg 45%
10:00 +25°C° 0 mm 1 mps 631 mmHg 40%
11:00 +27°C° 0 mm 1 mps 631 mmHg 35%
12:00 +27°C° 0 mm 1 mps 631 mmHg 35%
13:00 +27°C° 0 mm 1 mps 630 mmHg 35%
14:00 +27°C° 0 mm 1 mps 629 mmHg 35%
15:00 +25°C° 0.1 mm 1 mps 629 mmHg 43%
16:00 +23°C° 0.1 mm 1 mps 628 mmHg 52%
17:00 +21°C° 0.1 mm 1 mps 628 mmHg 61%
18:00 +20°C° 0 mm 1 mps 628 mmHg 65%
19:00 +19°C° 0 mm 1 mps 628 mmHg 70%
20:00 +18°C° 0 mm 1 mps 629 mmHg 74%
21:00 +18°C° 0 mm 1 mps 629 mmHg 75%
22:00 +18°C° 0 mm 1 mps 629 mmHg 77%
23:00 +16°C° 0 mm 1 mps 629 mmHg 78%
Show more